Temp
16 15 15 16 16 16 16 15 15 15 15 15 15 15 15 15 14 13 13 13 13 14 13 13 13 13 13 13 12 12 11 12 11
16 16 15 15 15 16 16 16 15 15 15 15 15 15 15 15 14 13 13 13 13 14 13 13 13 13 13 12 12 11 11 11 13
16 16 16 15 15 15 15 15 15 15 15 15 15 15 15 15 14 13 13 13 13 13 14 13 13 12 12 13 12 11 11 11 12
16 16 16 16 15 15 15 15 15 15 15 15 15 15 15 14 14 13 13 13 13 14 14 13 12 13 13 12 11 11 11 11 13
16 17 16 16 16 16 16 16 16 15 15 15 15 14 14 15 14 14 13 13 13 13 14 14 13 13 13 13 12 11 12 13 13
16 16 16 16 16 16 16 16 16 16 16 15 15 15 15 15 15 14 14 13 13 14 14 13 13 13 13 13 13 13 14 14 13
15 16 15 15 15 15 16 16 15 15 16 16 15 15 15 14 14 15 14 13 13 14 14 14 13 13 13 14 14 15 14 14 14
15 15 15 15 15 15 15 15 15 15 15 15 15 15 15 14 14 14 13 14 14 14 14 14 14 14 13 14 14 14 15 14 14
14 14 14 14 14 13 13 14 14 14 14 14 14 14 14 14 15 14 14 14 14 14 14 14 14 14 13 13 14 14 14 14 14
13 13 13 13 13 13 14 13 13 13 14 14 14 14 14 14 15 15 14 14 14 14 14 14 14 14 14 13 13 14 14 14 14
12 12 12 12 12 12 13 13 13 13 13 13 14 14 14 14 14 14 14 14 14 14 14 14 14 14 14 14 13 13 14 14 14
11 11 11 11 11 11 11 12 12 13 13 13 13 13 14 14 14 14 14 14 14 14 14 14 14 14 14 13 13 13 13 14 14
11 11 10 10 10 9 10 10 11 11 11 12 13 13 13 13 13 14 14 13 13 14 14 14 13 14 14 14 13 13 13 13 14
10 10 10 10 9 9 8 9 9 9 10 10 11 12 12 12 12 13 13 13 13 13 13 14 14 13 14 14 14 13 13 13 13
10 10 10 9 9 8 7 7 8 8 8 9 9 10 11 12 12 12 12 12 13 13 13 13 13 13 13 13 14 14 13 13 13
10 9 9 8 7 6 6 7 7 7 8 8 9 9 9 10 11 11 12 12 12 12 13 13 13 13 13 13 13 13 13 13 13
9 8 8 7 7 6 6 6 6 6 7 7 8 8 9 9 10 10 11 12 12 12 12 12 12 13 13 13 12 13 13 13 13
8 9 8 8 6 5 5 5 6 6 6 7 7 8 9 9 9 10 9 10 10 11 11 12 12 12 12 12 13 13 13 13 12
8 8 8 8 7 4 3 5 5 6 6 7 7 7 7 7 8 8 9 9 9 10 10 11 11 11 11 11 11 12 12 12 12
7 8 8 7 5 3 4 5 5 5 5 6 6 7 7 7 7 7 8 8 8 9 9 9 10 10 10 10 11 11 11 11 11
Height
1543 1544 1544 1543 1543 1543 1543 1543 1543 1543 1543 1542 1542 1542 1542 1542 1542 1542 1544 1542 1542 1543 1542 1543 1543 1543 1543 1543 1543 1545 1545 1545 1545
1543 1543 1543 1542 1542 1542 1542 1541 1541 1541 1542 1541 1541 1541 1541 1541 1541 1541 1542 1541 1541 1541 1542 1542 1542 1543 1542 1542 1542 1542 1543 1543 1543
1541 1541 1540 1540 1540 1540 1540 1540 1539 1539 1539 1539 1539 1540 1539 1540 1540 1540 1541 1540 1540 1540 1539 1540 1541 1542 1541 1542 1542 1542 1542 1543 1542
1538 1538 1538 1538 1538 1538 1538 1538 1537 1537 1537 1537 1537 1537 1537 1537 1538 1538 1539 1538 1538 1538 1537 1538 1539 1539 1539 1541 1542 1542 1541 1541 1541
1535 1535 1535 1535 1535 1535 1535 1534 1534 1534 1533 1534 1534 1534 1534 1534 1535 1535 1536 1536 1536 1536 1536 1536 1537 1537 1538 1537 1539 1540 1540 1540 1540
1531 1532 1531 1532 1531 1531 1531 1531 1530 1530 1530 1530 1530 1530 1529 1530 1531 1532 1532 1533 1533 1534 1534 1534 1535 1535 1536 1536 1536 1537 1538 1539 1539
1528 1527 1527 1527 1527 1527 1527 1526 1526 1526 1525 1525 1526 1525 1525 1526 1526 1527 1528 1529 1529 1530 1530 1531 1531 1532 1532 1533 1534 1534 1535 1536 1537
1524 1523 1523 1523 1522 1522 1522 1522 1522 1521 1521 1521 1521 1521 1521 1521 1522 1523 1524 1525 1526 1526 1527 1527 1527 1528 1529 1530 1531 1531 1532 1533 1534
1518 1518 1518 1519 1518 1518 1518 1518 1518 1517 1517 1517 1517 1516 1516 1517 1518 1518 1520 1521 1521 1522 1522 1523 1523 1524 1525 1526 1527 1528 1529 1529 1530
1512 1512 1512 1513 1513 1513 1514 1513 1513 1513 1512 1512 1512 1512 1512 1512 1513 1514 1515 1516 1516 1517 1518 1518 1519 1520 1521 1522 1523 1524 1525 1526 1527
1506 1506 1506 1506 1507 1507 1507 1507 1508 1507 1508 1507 1507 1507 1507 1507 1507 1508 1509 1510 1511 1511 1512 1512 1513 1514 1515 1516 1518 1519 1520 1521 1522
1501 1500 1500 1500 1500 1501 1501 1500 1500 1500 1501 1501 1501 1501 1501 1501 1502 1502 1503 1503 1504 1505 1506 1507 1508 1509 1510 1511 1512 1513 1514 1515 1516
1496 1495 1494 1494 1494 1494 1494 1494 1494 1494 1494 1494 1494 1495 1496 1495 1495 1495 1496 1497 1497 1498 1499 1500 1501 1502 1504 1505 1506 1507 1508 1509 1511
1492 1490 1489 1489 1488 1488 1488 1488 1488 1488 1487 1487 1487 1487 1488 1489 1489 1489 1489 1490 1490 1491 1491 1492 1493 1494 1496 1497 1499 1500 1502 1503 1504
1488 1486 1485 1484 1483 1483 1483 1482 1482 1482 1482 1481 1480 1480 1481 1481 1482 1482 1483 1483 1483 1484 1485 1485 1485 1486 1487 1489 1491 1493 1494 1496 1497
1483 1481 1479 1478 1477 1477 1478 1477 1477 1477 1477 1475 1474 1473 1473 1474 1475 1476 1476 1476 1477 1477 1477 1478 1478 1478 1480 1480 1483 1484 1485 1487 1489
1478 1475 1473 1472 1471 1470 1471 1472 1472 1472 1473 1472 1470 1467 1467 1468 1468 1469 1470 1469 1469 1469 1469 1469 1470 1469 1470 1472 1474 1475 1478 1479 1479
1474 1471 1468 1467 1466 1464 1465 1467 1468 1468 1468 1468 1469 1466 1463 1462 1463 1462 1463 1463 1463 1463 1464 1463 1463 1462 1462 1462 1463 1465 1468 1470 1471
1470 1468 1465 1463 1460 1460 1460 1463 1463 1464 1463 1464 1464 1463 1462 1460 1457 1458 1456 1455 1456 1456 1457 1457 1456 1456 1455 1455 1455 1455 1457 1459 1461
1468 1465 1462 1460 1458 1458 1459 1460 1461 1460 1460 1459 1458 1458 1458 1457 1456 1452 1453 1451 1450 1450 1450 1448 1449 1449 1448 1447 1447 1448 1448 1449 1449
Wind_Speed
8 8 7 7 8 7 7 9 9 9 8 8 7 5 3 1 3 3 5 9 7 4 6 4 5 9 4 6 6 6 5 4 3
10 9 10 9 9 9 9 10 10 10 10 10 9 7 6 3 4 3 8 10 9 8 9 7 6 7 9 5 9 7 8 6 6
12 12 12 12 12 11 11 11 11 12 12 12 12 10 9 8 6 7 11 13 12 11 13 14 10 9 9 7 5 6 5 5 6
13 13 14 14 15 14 13 12 13 13 14 14 14 14 12 12 10 8 15 15 12 10 10 13 11 11 12 12 8 7 9 8 7
16 17 16 16 16 16 16 15 15 14 16 16 16 17 17 17 15 14 15 17 17 14 11 13 14 13 11 12 13 13 12 10 9
19 19 19 18 18 18 18 19 18 18 19 19 20 19 21 20 19 18 17 18 20 17 15 14 15 16 14 15 14 14 12 12 11
21 23 21 21 22 23 23 22 23 23 24 23 22 24 23 22 22 20 14 20 22 20 18 19 19 19 18 17 18 16 15 14 13
23 23 22 21 23 22 22 25 27 27 27 26 27 25 24 23 22 20 19 24 25 24 22 21 20 21 21 19 18 18 18 17 17
23 22 21 20 20 18 19 22 23 25 26 25 25 25 27 25 24 22 20 26 29 26 26 24 23 22 23 23 22 23 22 21 20
23 23 23 25 26 26 23 19 19 24 26 27 29 29 31 30 28 27 26 25 29 29 26 27 27 26 25 26 25 23 24 26 25
25 25 25 25 25 25 25 28 28 22 22 26 26 29 32 33 33 33 32 33 32 33 30 27 30 30 29 28 27 27 25 25 27
20 23 25 26 26 26 27 27 28 30 30 28 25 27 30 31 35 35 36 37 36 38 35 32 28 32 32 30 29 30 29 27 28
18 19 20 20 21 23 26 27 28 28 29 31 34 31 29 33 32 33 34 34 35 38 37 37 35 32 34 35 34 32 33 32 29
18 18 18 18 19 20 22 24 26 28 28 30 32 33 31 26 29 34 36 35 35 33 35 34 36 36 35 33 37 37 36 36 35
18 20 19 19 19 19 19 19 19 23 26 29 28 28 30 33 32 29 28 32 36 37 35 36 37 39 36 36 36 41 40 39 39
19 20 21 20 19 17 17 18 19 22 22 22 27 30 32 34 38 36 34 35 33 36 37 38 39 42 41 40 40 39 44 43 43
20 21 21 21 21 22 20 16 17 18 17 20 23 26 26 25 24 27 29 28 28 34 38 37 37 38 40 42 43 42 40 45 45
21 19 19 20 21 21 18 16 15 18 17 16 15 12 9 14 16 15 15 18 19 24 33 30 32 35 36 38 41 44 44 42 46
18 17 16 15 14 17 14 13 15 14 16 16 16 20 25 24 24 29 31 29 28 26 26 24 24 33 34 33 36 39 41 41 43
17 15 12 12 9 5 7 11 14 15 18 17 17 19 20 22 24 23 24 25 23 24 27 28 28 24 27 32 35 37 39 39 42
Wind_Direction
289 288 298 304 294 287 276 274 277 282 295 297 296 294 297 186 113 96 268 242 248 260 201 215 216 217 235 208 166 137 151 154 169
282 282 278 285 292 290 282 278 277 276 282 285 283 281 280 264 201 205 256 263 265 241 229 234 246 228 235 214 201 194 183 188 184
284 282 278 276 281 285 285 279 277 277 277 279 279 274 270 266 218 202 255 260 263 268 245 232 239 242 251 210 220 200 212 191 206
286 286 280 278 274 276 279 279 277 276 278 275 276 275 270 266 256 211 263 273 266 266 248 215 228 239 236 228 211 218 223 219 218
284 281 285 287 281 276 274 276 278 276 272 272 271 272 270 264 257 239 225 255 266 268 249 227 230 247 245 233 208 228 225 222 225
282 279 280 277 275 276 274 276 275 275 276 275 271 268 267 267 264 257 246 253 254 261 255 244 240 243 246 240 235 223 225 226 229
263 278 279 278 273 269 268 266 266 265 268 273 271 266 268 269 270 263 248 248 259 258 254 244 245 245 249 245 237 233 228 228 229
272 274 277 285 286 277 270 266 266 268 269 271 270 269 265 265 272 264 246 253 262 263 255 250 248 244 246 246 246 246 237 233 232
279 275 268 259 256 268 287 288 273 268 268 269 265 265 269 262 266 265 251 253 259 268 259 251 250 247 245 248 249 248 247 240 237
278 274 269 264 263 261 252 254 276 279 274 269 262 256 255 261 260 262 243 248 257 266 266 257 251 250 247 246 249 250 253 246 242
277 275 271 269 268 268 267 261 257 255 270 277 274 267 262 258 256 258 256 252 248 257 262 263 256 251 251 250 247 249 251 252 250
287 282 278 274 270 267 263 262 261 255 250 252 260 271 271 267 261 259 256 255 254 256 261 263 263 258 251 249 249 248 250 252 250
296 294 290 287 280 274 268 266 266 265 264 262 258 259 268 269 269 266 262 260 258 257 260 262 259 262 259 252 248 248 250 252 253
299 297 296 292 284 277 274 270 269 268 268 266 262 257 253 262 266 267 266 264 261 259 259 259 259 257 260 260 254 249 250 252 253
297 297 297 292 287 284 282 280 279 278 278 270 267 266 260 258 260 262 269 272 268 265 265 261 260 259 260 258 263 255 248 249 252
300 297 291 286 279 277 277 275 273 272 266 274 280 278 271 264 255 255 256 260 266 274 273 271 270 265 264 262 256 261 252 248 249
304 300 292 281 274 269 265 267 280 281 281 276 278 286 282 273 270 274 278 278 276 270 267 271 274 270 267 263 261 262 258 253 250
311 306 301 296 277 273 264 266 276 286 288 281 272 292 275 300 288 261 272 281 283 281 272 273 275 274 272 268 266 264 264 261 255
313 312 315 309 291 273 273 253 255 274 282 284 279 272 280 290 294 289 288 285 286 282 280 282 294 270 269 270 271 271 266 263 256
318 312 326 337 336 312 265 258 259 264 266 267 274 275 275 275 283 290 292 293 294 293 284 290 279 281 288 284 281 275 274 271 266